Location: Kolin
(50.0330°N, 15.2000°E)
Time: 09:48:03
(UTC+02:00)

ISS - Visible Passes

Search period start: 20 October 2021 00:00
Search period end: 30 October 2021 00:00
Orbit: 417 x 423 km, 51.6° (Epoch: 20 October)

Date Brightness Start Highest point End Pass type
(mag) Time Alt. Az. Time Alt. Az. Time Alt. Az.
23 Oct -1.3 06:16:08 10° SSW 06:18:45 21° SE 06:21:22 10° E visible
24 Oct -1.0 05:29:55 10° S 05:31:50 15° SE 05:33:46 10° ESE visible
25 Oct -2.7 06:18:17 13° SW 06:21:07 43° SSE 06:24:21 10° E visible
26 Oct -2.3 05:33:31 28° S 05:34:09 31° SSE 05:37:11 10° E visible
27 Oct -1.0 04:48:39 17° ESE 04:48:39 17° ESE 04:49:55 10° E visible
27 Oct -3.7 06:21:39 21° WSW 06:23:45 81° SSE 06:27:08 10° ENE visible
28 Oct -3.5 05:36:44 62° SSE 05:36:46 62° SSE 05:40:06 10° ENE visible
29 Oct -1.1 04:51:46 21° E 04:51:46 21° E 04:53:04 10° ENE visible
29 Oct -3.7 06:24:47 25° W 06:26:36 70° N 06:29:59 10° ENE visible
